Location: Detroit
(42.3310°N, 83.0460°W)
Time: 06:53:47
(UTC-05:00)

SR - All Passes

Search period start: 01 March 2024 00:00
Search period end: 11 March 2024 01:00
Orbit: 574 x 867 km, 66.7° (Epoch: 29 February)

Date Brightness Start Highest point End Pass type
(mag) Time Alt. Az. Time Alt. Az. Time Alt. Az.
01 Mar - 14:07:10 10° SSW 14:12:58 70° ESE 14:18:38 10° NE daylight
01 Mar - 15:50:49 10° W 15:55:25 24° NW 15:59:53 10° N daylight
01 Mar - 21:08:18 10° NNE 21:09:32 11° NNE 21:10:46 10° NE visible
01 Mar - 22:47:52 10° NNW 22:52:46 53° NE 22:57:15 10° SE visible
02 Mar - 00:30:56 10° WNW 00:34:07 18° WSW 00:37:09 10° SSW night (unlit)
02 Mar - 13:16:01 10° S 13:21:16 35° ESE 13:26:25 10° NE daylight
02 Mar - 14:57:42 10° WSW 15:03:11 40° NW 15:08:28 10° NNE daylight
02 Mar - 21:56:20 10° NNW 22:00:38 27° NE 22:04:36 10° ESE visible
02 Mar - 23:38:06 10° NW 23:42:40 39° WSW 23:46:50 10° S visible
03 Mar - 12:25:59 10° SE 12:29:46 18° ESE 12:33:29 10° ENE daylight
03 Mar - 14:05:18 10° SW 14:11:09 75° WNW 14:16:49 10° NNE daylight
03 Mar - 15:50:28 10° WNW 15:53:59 16° NW 15:57:26 10° N daylight
03 Mar - 21:05:12 10° N 21:08:14 16° NE 21:11:08 10° ENE visible
03 Mar - 22:45:59 10° NNW 22:50:58 88° WSW 22:55:29 10° SSE visible
04 Mar - 13:13:35 10° SSW 13:19:18 58° ESE 13:24:52 10° NE daylight
04 Mar - 14:56:44 10° WSW 15:01:36 27° NW 15:06:18 10° N daylight
04 Mar - 21:54:14 10° NNW 21:59:00 43° NE 22:03:22 10° SE visible
04 Mar - 23:36:53 10° WNW 23:40:32 22° WSW 23:43:57 10° SSW visible
05 Mar - 12:22:41 10° SSE 12:27:39 30° ESE 12:32:32 10° NE daylight
05 Mar - 14:03:48 10° SW 14:09:25 47° NW 14:14:50 10° NNE daylight
05 Mar - 15:50:57 10° NW 15:52:41 11° NNW 15:54:24 10° NNW daylight
05 Mar - 21:02:47 10° N 21:06:47 23° NE 21:10:31 10° E visible
05 Mar - 22:44:18 10° NW 22:49:00 49° WSW 22:53:19 10° S visible
06 Mar - 11:33:07 10° SE 11:36:11 15° ESE 11:39:12 10° ENE daylight
06 Mar - 13:11:34 10° SSW 13:17:26 87° WNW 13:23:06 10° NNE daylight
06 Mar - 14:56:11 10° W 15:00:08 19° NW 15:03:57 10° N daylight
06 Mar - 20:11:51 10° N 20:14:20 14° NE 20:16:43 10° ENE visible
06 Mar - 21:52:17 10° NNW 21:57:14 76° ENE 22:01:44 10° SE visible
06 Mar - 23:36:41 10° W 23:38:16 12° WSW 23:39:50 10° WSW visible
07 Mar - 12:20:03 10° S 12:25:38 49° ESE 12:31:04 10° NE daylight
07 Mar - 14:02:41 10° WSW 14:07:47 31° NW 14:12:42 10° NNE daylight
07 Mar - 21:00:37 10° NNW 21:05:12 36° NE 21:09:25 10° ESE visible
07 Mar - 22:42:54 10° NW 22:46:54 27° WSW 22:50:38 10° SSW visible
08 Mar - 11:29:24 10° SSE 11:34:01 25° ESE 11:38:33 10° NE daylight
08 Mar - 13:09:57 10° SW 13:15:40 55° NW 13:21:10 10° NNE daylight
08 Mar - 14:56:17 10° WNW 14:58:46 13° NW 15:01:12 10° N daylight
08 Mar - 20:09:16 10° N 20:12:55 20° NE 20:16:21 10° E visible
08 Mar - 21:50:31 10° NW 21:55:19 61° WSW 21:59:42 10° SSE visible
09 Mar - 10:40:36 10° ESE 10:42:35 12° ESE 10:44:34 10° E daylight
09 Mar - 12:17:53 10° SSW 12:23:44 80° ESE 12:29:21 10° NNE daylight
09 Mar - 14:01:58 10° W 14:06:15 21° NW 14:10:25 10° N daylight
09 Mar - 19:18:39 10° NNE 19:20:24 12° NE 19:22:06 10° NE visible
09 Mar - 20:58:36 10° NNW 21:03:28 61° ENE 21:07:55 10° SE visible
09 Mar - 22:42:07 10° WNW 22:44:41 15° WSW 22:47:08 10° SW visible
10 Mar - 12:26:33 10° S 12:31:58 41° ESE 12:37:13 10° NE daylight
10 Mar - 14:08:41 10° WSW 14:13:58 36° NW 14:19:04 10° NNE daylight
10 Mar - 21:07:00 10° NNW 21:11:22 30° NE 21:15:24 10° ESE visible
10 Mar - 22:48:59 10° NW 22:53:15 33° WSW 22:57:13 10° S visible
